#timestamp,LO_Frequency,Hit,StdDev 
1675598415.4,286046995.7,N
1675598435.2,286046996.7,N
1675598455.0,286046996.2,N
1675598455.9,286046996.2,N
1675598475.8,286046995.6,N
1675598495.6,286046997.5,N
1675598515.5,286046996.7,N
1675598535.3,286046996.5,N
1675598555.1,286047000.8,N
1675598575.9,286046998.6,N
1675598595.7,286047001.0,N
1675598615.5,286047000.7,N
1675598635.4,286047000.4,N
1675598655.2,286047002.8,N
1675598675.1,286047004.2,N
1675598676.0,286047004.2,N
1675598695.8,286047000.8,N
1675598715.6,286047001.1,N
1675598735.5,286046998.6,N
1675598755.3,286046998.2,N
1675598775.2,286046999.0,N
1675598795.9,286047001.0,N
1675598815.7,286046998.6,N
1675598835.6,286047000.4,N
1675598855.4,286047002.8,N
1675598875.2,286047000.3,N
1675598895.1,286047000.2,N
1675598896.0,286047000.2,N
1675598915.8,286047002.2,N
1675598935.7,286047002.6,N
1675598955.5,286047001.9,N
1675598975.3,286047002.6,N
1675598995.2,286047002.1,N
1675599015.0,286047004.1,N
1675599015.9,286047004.1,N
1675599035.8,286047001.7,N
1675599055.6,286047001.6,N
1675599075.4,286047003.4,N
1675599095.3,286047004.2,N
1675599115.1,286047003.2,N
1675599135.9,286047002.1,N
1675599155.7,286047000.2,N
1675599175.5,286047000.6,N
1675599195.4,286046996.5,N
1675599215.2,286046998.1,N
1675599235.0,286047001.1,N
1675599236.0,286047001.1,N
1675599255.8,286047002.7,N
1675599275.6,286047001.0,N
1675599295.4,286046999.7,N
1675599315.2,286046999.8,N
1675599335.0,286047000.4,N
1675599335.9,286047000.4,N
1675599355.8,286047002.3,N
1675599375.6,286047003.2,N
1675599395.4,286047000.1,N
1675599415.3,286047000.6,N
1675599435.1,286047000.6,N
1675599455.9,286047001.6,N
1675599475.7,286047002.6,N
1675599495.5,286047002.3,N
1675599515.4,286047001.8,N
1675599535.2,286047004.4,N
1675599555.0,286047003.1,N
1675599555.9,286047003.1,N
1675599575.8,286047002.0,N
1675599595.6,286047011.9,Y
1675599615.5,286046999.7,P
1675599635.3,286047002.1,N
1675599655.1,286047001.5,N
1675599675.9,286047002.7,N
1675599695.7,286047000.1,N
1675599715.5,286046998.4,N
1675599735.4,286047001.0,N
1675599755.2,286047000.9,N
1675599775.1,286046998.1,N
1675599776.0,286046998.1,N
1675599795.8,286047001.0,N
1675599815.6,286047000.9,N
1675599835.5,286047001.0,N
1675599855.3,286046996.6,N
1675599875.1,286046998.2,N
1675599895.9,286046998.2,N
1675599915.7,286047000.9,N
1675599935.5,286047000.9,N
1675599955.4,286046997.2,N
1675599975.2,286046999.2,N
1675599995.1,286046998.5,N
1675599996.0,286046998.5,N
1675600015.8,286046998.7,N
1675600035.6,286046998.6,N
1675600055.5,286047001.2,N
1675600075.3,286046999.2,N
1675600095.2,286046996.7,N
1675600115.9,286046999.1,N
1675600135.7,286046999.1,N
1675600155.6,286046999.2,N
1675600175.4,286047000.6,N
1675600195.2,286047000.3,N
1675600215.1,286047000.3,N
1675600216.0,286047000.3,N
1675600235.8,286046998.9,N
1675600255.7,286046998.9,N
1675600275.5,286046997.1,N
1675600295.3,286046998.3,N
1675600315.2,286046996.6,N
1675600335.9,286046996.9,N
1675600355.7,286046996.5,N
1675600375.6,286046998.6,N
1675600395.4,286047000.8,N
1675600415.2,286047000.7,N
1675600435.1,286047000.4,N
1675600436.0,286047000.4,N
1675600455.8,286047002.0,N
1675600475.7,286046999.9,N
1675600495.5,286046999.9,N
1675600515.3,286046999.9,N
1675600535.2,286047001.0,N
1675600555.0,286047000.5,N
1675600555.9,286047000.5,N
1675600575.8,286047002.4,N
1675600595.6,286047001.2,N
1675600615.4,286046998.5,N
1675600635.3,286046999.3,N
1675600655.1,286047000.5,N
1675600675.8,286047000.6,N
1675600695.7,286046996.6,N
1675600715.5,286046995.2,Y
1675600735.4,286046994.9,P
1675600755.2,286046996.7,N
1675600775.0,286046998.6,N
1675600775.9,286046998.6,N
1675600795.8,286046996.6,N
1675600815.6,286046998.7,N
1675600835.4,286046996.6,N
1675600855.3,286046996.4,N
1675600875.1,286046994.7,Y
1675600895.9,286046995.2,P
1675600915.7,286046996.5,P
1675600935.5,286047000.5,N
1675600955.4,286047000.6,N
1675600975.2,286047000.9,N
1675600995.0,286047000.3,N
1675600995.9,286047000.3,N
1675601015.8,286047002.7,N
1675601035.6,286046999.8,N
1675601055.5,286047000.3,N
1675601075.3,286047001.5,N
1675601095.1,286047002.5,N
1675601115.9,286047000.0,N
1675601135.7,286047002.0,N
1675601155.5,286047002.8,N
1675601175.4,286047002.3,N
1675601195.2,286047001.8,N
1675601215.0,286047001.4,N
1675601216.0,286047001.4,N
1675601235.8,286047004.4,N
1675601255.6,286047002.1,N
1675601275.5,286046996.8,N
1675601295.3,286046997.1,N
1675601315.1,286046996.7,N
1675601335.9,286046996.7,N
1675601355.7,286046998.1,N
1675601375.5,286047000.4,N
1675601395.4,286047000.4,N
1675601415.2,286047000.1,N
1675601435.1,286046998.5,N
1675601436.0,286046998.5,N
1675601455.8,286046998.1,N
1675601475.6,286046999.6,N
1675601495.5,286046996.5,N
1675601515.3,286046996.6,N
1675601535.1,286046997.0,N
1675601555.9,286046998.8,N
1675601575.7,286047000.7,N
1675601595.6,286047001.2,N
1675601615.4,286046996.6,N
1675601635.2,286046999.3,N
1675601655.1,286046998.2,N
1675601656.0,286046998.2,N
1675601675.8,286046998.5,N
1675601695.7,286047000.7,N
1675601715.5,286047002.4,N
1675601735.3,286047002.6,N
1675601755.2,286047000.5,N
1675601775.9,286047002.7,N
1675601795.8,286047000.3,N
1675601815.6,286047001.0,N
1675601835.4,286046999.6,N
1675601855.3,286046999.1,N
1675601875.1,286047000.8,N
1675601895.9,286047000.5,N
1675601915.7,286047002.2,N
1675601935.5,286047002.1,N
1675601955.4,286047003.9,N
1675601975.2,286047003.9,N
1675601995.0,286047003.9,N
1675601995.9,286047003.9,N
